Wind_Speed
12 12 12 12 11 12 12 12 11 11 11 10 10 9 9 9 9 8 8 7 8 8 7 6 6 6 6 5 4 4 3 2 1 1 1 2 3 3 4 5 5 6 6
14 14 14 14 13 13 13 13 12 12 12 12 12 11 11 10 10 9 9 8 8 8 8 7 7 7 6 6 6 5 4 4 2 1 1 1 2 3 3 4 5 5 5
16 16 16 15 15 15 15 14 13 13 14 13 13 13 13 12 11 10 10 9 9 9 8 8 7 8 8 7 7 6 5 4 3 2 2 1 1 2 3 4 4 5 5
18 18 17 17 17 16 16 16 15 15 15 15 15 14 14 14 13 12 11 10 10 9 9 9 9 8 7 8 8 7 6 5 4 3 3 2 2 2 2 3 4 4 5
20 20 19 19 18 18 18 18 18 17 17 16 16 16 16 15 15 14 13 12 11 11 10 10 10 9 8 8 8 8 8 7 5 4 4 3 2 2 2 3 3 4 4
22 22 22 21 21 20 20 20 20 19 19 19 18 17 18 17 16 16 15 14 13 12 12 11 11 10 9 9 9 8 8 8 7 6 5 4 3 3 3 2 2 3 3
22 23 23 23 23 23 22 22 21 21 20 20 21 20 19 18 18 17 17 16 15 14 13 13 12 12 11 10 10 9 9 9 8 7 6 5 4 4 3 3 2 2 3
23 24 25 25 25 25 24 24 24 23 23 22 22 22 22 21 20 19 18 18 17 16 15 15 14 13 13 12 11 11 10 10 9 8 8 7 6 5 4 3 3 3 3
26 26 26 27 27 27 27 26 26 26 25 25 24 24 24 23 23 22 20 19 19 18 17 16 15 14 14 14 13 12 12 11 11 10 9 8 8 7 6 5 4 3 3
28 28 28 28 28 29 28 28 28 28 28 27 27 27 26 26 25 24 23 22 21 20 19 18 17 15 15 15 15 14 14 13 12 11 11 10 9 9 8 7 6 5 5
30 30 31 31 31 31 31 30 30 30 30 30 29 29 29 29 28 26 26 24 23 22 21 20 19 18 17 16 16 16 15 15 13 13 12 11 11 10 10 9 8 8 7
32 32 33 33 33 33 33 33 32 32 32 32 32 32 31 31 30 29 27 27 26 24 23 22 21 20 19 18 17 17 16 16 15 14 13 13 12 12 11 11 10 9 8
33 34 34 34 35 35 35 35 35 34 34 34 34 34 34 34 33 32 30 29 28 27 25 24 23 22 21 20 19 19 18 17 16 16 15 14 13 13 13 12 12 11 10
35 35 36 36 36 37 37 37 37 37 37 36 36 36 36 35 34 34 32 31 30 29 28 27 25 24 24 22 21 20 20 19 18 18 17 16 15 15 14 14 13 12 11
36 36 37 37 37 37 38 39 40 40 40 39 39 38 38 38 36 35 35 33 32 31 31 30 29 27 26 25 24 23 22 22 21 20 19 18 17 17 16 15 15 14 13
38 38 38 39 39 40 40 40 41 41 42 41 40 40 40 39 38 37 36 35 34 33 32 32 31 30 29 28 27 26 24 24 23 22 21 20 19 19 18 17 17 16 15
40 40 41 41 41 42 42 42 42 43 43 42 41 42 41 41 40 39 38 37 36 35 34 34 33 33 32 31 29 28 27 26 25 24 24 23 22 21 20 19 18 18 18
42 42 42 43 43 43 43 43 43 43 43 43 43 43 43 43 43 42 41 39 39 38 37 36 36 35 34 33 32 31 30 29 28 27 26 25 24 23 23 21 20 20 19
43 44 44 43 44 44 44 44 44 43 43 44 44 44 45 45 45 45 43 42 41 40 39 39 39 38 37 36 35 33 32 31 30 29 28 27 27 25 25 24 23 21 21
43 44 45 44 44 44 43 43 44 44 44 45 44 44 45 46 47 47 46 45 43 43 42 41 40 40 40 38 37 36 35 34 32 31 30 29 29 28 26 26 24 23 22
43 44 45 45 45 45 44 44 44 44 45 46 46 46 46 47 48 49 48 48 46 45 44 43 42 41 41 40 40 39 38 36 35 34 33 32 31 30 29 27 26 25 24
43 44 45 45 45 45 45 45 46 46 46 46 47 46 47 48 49 50 50 49 49 48 48 47 45 44 43 42 42 40 40 39 39 37 35 34 34 33 31 30 28 27 26
42 43 44 45 45 45 46 46 46 47 47 47 48 49 48 49 49 50 51 51 50 50 50 49 48 47 46 45 44 43 43 42 41 40 38 36 35 34 34 33 31 30 29
42 43 44 45 45 45 45 45 46 47 47 48 48 49 49 49 50 51 52 52 51 51 51 50 50 49 48 47 46 45 44 43 42 41 40 39 38 37 36 35 33 32 32
42 43 44 45 45 45 46 45 45 46 47 48 48 48 48 49 50 51 52 52 52 52 52 51 51 50 50 48 47 47 46 44 43 43 42 41 41 39 38 37 36 35 34
41 43 44 45 45 46 47 46 47 47 48 49 49 49 48 49 51 51 52 53 52 53 53 52 52 51 51 51 49 48 47 47 46 45 44 43 42 41 40 40 39 38 37
Wind_Direction
234 235 235 234 233 234 234 235 235 233 235 236 236 235 236 236 234 234 235 235 231 222 217 214 214 214 209 209 209 208 208 203 191 164 77 49 36 29 29 27 29 33 34
239 238 238 239 238 236 237 237 236 236 237 238 236 236 237 237 237 235 236 235 233 228 224 220 219 218 215 215 215 217 216 213 210 213 219 12 14 17 25 28 29 32 35
246 243 241 241 239 239 239 239 240 240 239 239 237 239 238 237 239 238 236 236 236 234 232 228 227 227 225 221 217 218 220 219 219 223 232 264 338 3 15 20 22 24 30
248 244 243 243 242 241 240 240 240 240 240 240 239 239 238 238 239 239 237 236 236 237 236 233 229 232 231 227 223 222 224 224 225 227 235 251 283 317 348 5 13 19 26
247 245 244 244 244 243 242 242 241 240 242 242 241 242 239 237 238 239 239 237 238 239 238 235 230 230 229 230 232 229 227 226 227 231 238 249 265 288 323 352 9 18 23
247 246 245 245 244 244 244 243 243 243 244 244 243 244 240 236 238 240 240 239 240 241 239 236 232 229 229 232 234 234 229 227 229 234 239 246 259 273 294 323 353 9 16
247 245 245 245 245 245 244 245 244 244 245 245 245 244 242 240 241 241 242 240 241 241 238 237 237 234 232 233 236 236 234 230 232 237 240 244 251 261 280 296 315 341 3
248 248 246 246 246 246 246 245 245 246 247 247 246 245 244 244 244 243 244 242 242 242 239 237 239 237 235 233 234 236 237 236 235 237 240 243 248 254 263 276 289 309 332
249 248 248 247 246 247 246 245 246 247 246 246 246 246 245 245 245 245 244 243 243 242 240 238 238 238 238 236 234 237 239 240 238 239 242 243 245 249 255 263 273 289 306
249 249 248 247 246 246 245 246 246 246 246 246 245 245 246 245 246 245 245 245 243 242 241 240 238 237 238 238 236 237 240 241 240 240 243 244 246 250 254 260 266 277 288
250 249 249 249 248 247 247 247 246 245 246 246 245 245 245 245 245 245 245 244 243 242 240 240 239 237 237 238 239 237 238 241 242 241 244 246 248 252 256 258 262 268 275
250 250 251 251 250 248 248 248 247 246 246 246 245 245 244 244 245 244 244 244 243 243 241 240 239 238 237 238 238 238 238 241 243 244 245 246 249 252 256 257 258 262 266
251 251 251 252 252 251 250 250 249 247 246 245 245 244 244 244 244 245 244 245 245 243 242 240 240 239 238 238 239 239 240 242 245 246 247 247 250 252 255 257 256 258 260
250 252 252 252 253 253 252 251 250 248 246 245 245 244 244 244 244 244 243 244 245 243 243 242 240 240 239 238 239 240 241 242 244 247 248 250 251 252 254 256 255 257 258
251 252 253 253 254 253 253 252 251 250 248 246 245 244 243 243 244 244 243 242 243 243 243 241 241 241 240 239 239 240 243 243 244 247 248 250 252 253 254 255 255 255 257
252 253 253 254 254 254 254 253 252 252 249 247 246 244 242 242 242 242 243 242 242 243 243 243 241 242 241 241 240 241 242 243 244 246 248 249 252 253 254 255 255 254 255
253 254 254 254 254 255 254 253 252 251 250 248 245 244 242 241 240 241 241 241 241 242 242 243 242 242 242 242 242 242 243 243 245 247 249 249 250 252 254 254 254 253 253
254 254 255 254 254 254 253 252 251 250 250 248 246 244 242 241 240 240 240 241 241 242 243 243 243 242 242 243 244 244 245 245 246 247 249 249 249 250 252 252 253 252 251
255 254 255 255 254 253 251 251 251 250 249 247 246 244 242 241 240 240 240 240 241 241 242 243 242 241 241 242 244 244 245 246 247 247 248 248 248 249 251 250 251 251 251
255 255 254 255 254 253 252 251 251 250 249 247 246 244 243 241 241 240 240 240 240 241 241 242 242 241 242 242 244 244 246 246 247 248 248 248 249 248 249 249 249 250 250
254 254 254 254 253 253 252 252 251 250 249 248 246 244 243 242 241 241 240 240 240 240 241 241 242 241 242 243 244 245 246 247 246 247 247 248 248 247 247 247 248 249 249
254 254 254 253 252 252 251 251 251 250 249 248 246 244 244 242 242 241 241 240 240 240 241 242 243 242 242 243 244 245 245 246 246 246 246 247 247 246 246 247 248 249 249
255 254 254 253 252 252 250 250 250 249 248 248 246 244 244 243 242 241 241 241 241 241 241 242 243 243 243 243 244 244 245 245 246 247 245 245 245 246 247 248 248 250 250
255 254 253 253 252 251 250 251 250 249 248 248 246 245 244 243 242 241 241 241 241 241 242 243 243 243 243 244 244 243 245 246 246 247 246 245 245 246 247 247 248 249 250
256 255 254 253 252 251 249 249 249 249 248 248 247 245 243 242 242 242 242 242 242 242 242 243 244 244 243 243 243 243 243 244 245 246 246 246 245 246 247 246 246 248 249
258 257 255 254 252 250 249 250 249 250 249 248 246 245 243 242 242 242 242 242 243 243 243 243 244 245 244 242 242 242 243 244 244 245 246 246 246 246 246 246 246 247 248
Height
5850 5850 5851 5852 5852 5853 5854 5855 5855 5856 5857 5858 5858 5859 5859 5860 5860 5860 5860 5860 5861 5861 5861 5861 5861 5861 5862 5862 5862 5862 5862 5862 5862 5862 5861 5861 5860 5860 5859 5858 5857 5856 5855
5847 5848 5849 5850 5850 5851 5852 5853 5854 5855 5856 5856 5857 5857 5858 5858 5859 5859 5859 5859 5860 5860 5860 5860 5861 5861 5861 5861 5862 5862 5862 5862 5862 5861 5861 5861 5860 5860 5859 5858 5857 5856 5856
5845 5845 5846 5847 5848 5849 5850 5851 5852 5853 5854 5854 5855 5856 5856 5857 5857 5858 5858 5858 5859 5859 5859 5859 5860 5860 5860 5861 5861 5861 5861 5861 5861 5861 5861 5861 5860 5860 5859 5858 5858 5857 5856
5841 5842 5843 5844 5845 5846 5847 5849 5850 5851 5851 5852 5853 5854 5854 5855 5855 5856 5856 5857 5857 5858 5858 5858 5859 5859 5859 5860 5860 5860 5860 5860 5860 5861 5861 5861 5860 5860 5859 5859 5858 5857 5856
5838 5839 5840 5841 5842 5843 5844 5846 5847 5848 5849 5850 5851 5851 5852 5853 5853 5854 5855 5855 5856 5856 5857 5857 5857 5858 5858 5859 5859 5859 5859 5860 5860 5860 5860 5860 5860 5860 5859 5859 5858 5857 5857
5834 5835 5836 5837 5838 5839 5841 5842 5843 5845 5846 5847 5848 5848 5849 5850 5851 5852 5852 5853 5854 5854 5855 5855 5856 5856 5857 5857 5858 5858 5858 5859 5859 5859 5859 5860 5859 5859 5859 5858 5858 5857 5856
5830 5830 5832 5833 5834 5835 5836 5838 5839 5841 5842 5843 5844 5845 5846 5847 5848 5849 5850 5851 5851 5852 5853 5853 5854 5855 5855 5856 5856 5857 5857 5857 5858 5858 5858 5859 5858 5858 5858 5858 5857 5857 5856
5825 5826 5827 5828 5829 5830 5832 5833 5835 5836 5838 5839 5840 5841 5842 5843 5845 5846 5847 5848 5849 5850 5850 5851 5852 5853 5853 5854 5854 5855 5855 5856 5856 5857 5857 5857 5857 5857 5857 5857 5857 5856 5856
5819 5820 5821 5823 5824 5825 5827 5828 5830 5831 5833 5834 5835 5837 5838 5840 5841 5842 5843 5844 5846 5846 5847 5848 5849 5850 5851 5852 5852 5853 5853 5854 5854 5855 5855 5856 5856 5856 5856 5856 5856 5855 5855
5813 5814 5815 5817 5818 5819 5820 5822 5824 5826 5827 5829 5830 5832 5833 5835 5836 5838 5839 5840 5841 5843 5844 5845 5846 5847 5848 5849 5850 5850 5851 5852 5852 5853 5853 5854 5854 5854 5855 5854 5854 5854 5854
5806 5808 5809 5810 5812 5813 5814 5816 5818 5819 5821 5823 5824 5826 5828 5829 5831 5832 5834 5835 5837 5838 5840 5841 5842 5844 5845 5846 5847 5847 5848 5849 5850 5850 5851 5852 5852 5852 5853 5853 5853 5853 5852
5799 5801 5802 5803 5804 5805 5807 5809 5810 5812 5814 5816 5818 5820 5821 5823 5825 5827 5829 5830 5832 5834 5835 5837 5838 5840 5841 5842 5843 5844 5845 5846 5847 5848 5848 5849 5850 5850 5850 5851 5851 5851 5850
5791 5793 5794 5795 5796 5798 5799 5801 5803 5804 5806 5808 5810 5812 5814 5816 5818 5820 5822 5824 5826 5828 5830 5832 5833 5835 5836 5838 5839 5840 5841 5843 5844 5845 5845 5846 5847 5847 5848 5848 5848 5848 5848
5782 5784 5785 5787 5788 5789 5790 5792 5794 5795 5797 5799 5802 5804 5806 5809 5811 5813 5815 5818 5820 5822 5824 5826 5828 5830 5831 5833 5834 5836 5837 5839 5840 5841 5842 5843 5844 5844 5845 5845 5845 5846 5846
5773 5774 5776 5777 5779 5780 5781 5782 5784 5785 5787 5789 5792 5794 5797 5800 5803 5805 5808 5810 5813 5815 5817 5820 5822 5824 5826 5828 5829 5831 5833 5834 5836 5837 5838 5839 5840 5841 5841 5842 5842 5843 5843
5763 5764 5765 5767 5768 5770 5771 5772 5773 5774 5776 5779 5781 5784 5787 5791 5794 5797 5799 5802 5805 5808 5810 5812 5815 5817 5820 5822 5824 5826 5828 5829 5831 5832 5834 5835 5836 5837 5837 5838 5839 5839 5840
5752 5753 5755 5756 5757 5759 5760 5761 5762 5764 5766 5768 5771 5774 5777 5780 5784 5787 5791 5794 5796 5799 5802 5805 5808 5810 5813 5815 5818 5820 5822 5824 5825 5827 5829 5830 5831 5832 5833 5834 5834 5835 5836
5740 5741 5743 5744 5745 5747 5748 5749 5751 5752 5754 5757 5759 5763 5766 5770 5773 5777 5781 5785 5788 5791 5794 5797 5800 5803 5805 5808 5811 5813 5815 5818 5819 5821 5823 5824 5826 5827 5828 5829 5830 5831 5832
5727 5728 5730 5731 5733 5734 5736 5737 5739 5741 5743 5745 5748 5751 5754 5758 5762 5766 5771 5775 5778 5782 5785 5788 5791 5794 5797 5800 5803 5806 5808 5811 5813 5815 5816 5818 5820 5821 5822 5823 5824 5826 5827
5714 5715 5716 5718 5720 5721 5723 5725 5727 5729 5731 5733 5736 5739 5742 5746 5751 5755 5759 5764 5768 5772 5776 5779 5782 5785 5789 5792 5795 5798 5801 5803 5805 5807 5809 5811 5813 5815 5816 5817 5819 5820 5821
5700 5702 5703 5705 5707 5708 5711 5713 5715 5717 5719 5721 5724 5728 5731 5734 5739 5743 5748 5752 5757 5761 5766 5769 5772 5775 5779 5782 5786 5789 5792 5794 5797 5800 5802 5804 5806 5807 5809 5811 5812 5814 5815
5687 5688 5690 5691 5693 5696 5698 5700 5702 5704 5706 5709 5712 5715 5719 5722 5727 5731 5735 5740 5745 5750 5754 5758 5762 5765 5769 5772 5776 5779 5782 5786 5788 5791 5793 5795 5798 5800 5802 5804 5806 5807 5809
5674 5675 5677 5678 5680 5682 5685 5687 5689 5691 5694 5696 5699 5703 5706 5710 5714 5719 5723 5728 5733 5737 5742 5746 5750 5754 5758 5761 5765 5769 5772 5775 5778 5782 5784 5787 5789 5792 5794 5796 5798 5800 5802
5662 5663 5664 5665 5667 5669 5671 5673 5676 5679 5682 5684 5687 5690 5694 5697 5702 5706 5711 5715 5720 5725 5730 5734 5738 5742 5746 5750 5753 5757 5761 5764 5768 5772 5775 5778 5780 5783 5785 5788 5790 5792 5794
5650 5651 5652 5653 5655 5656 5658 5660 5664 5667 5669 5672 5675 5677 5681 5685 5689 5693 5698 5703 5708 5712 5717 5721 5725 5730 5734 5738 5742 5746 5749 5753 5756 5760 5764 5768 5771 5773 5776 5779 5781 5783 5786
5638 5639 5639 5640 5642 5644 5646 5648 5651 5654 5657 5659 5662 5665 5668 5672 5676 5680 5685 5690 5695 5699 5704 5708 5712 5717 5721 5726 5730 5734 5738 5742 5746 5749 5753 5756 5760 5763 5766 5769 5772 5774 5777